[[{"header":{"parameterUnit":"m.s-1","parameterCategory":1,"la1":30.2991,"la2":30.254,"lo1":-89.0895,"lo2":-89.0444,"dy":0.0017,"dx":0.0017,"nx":28,"ny":28,"refTime":"2024-09-29T09:00:00:Z","depth":0,"parameterNumber":2,"parameterNumberName":"U-component_of_WINDS"},"data":[0,0,0,0,0,0,0,0,0,0,0,0,0,0,0,0,0,0,0,0,0,0,0,0,0,0,0,0,0,0,0,0,0,0,0,0,0,0,0,0,0,0,0,0,0,0,0,0,0,0,0,0,0,0,0,0,0,0,4.1569,4.1571,0,4.173,4.1732,4.1734,4.1639,4.1634,4.163,4.1625,4.1793,4.1801,4.181,0,0,0,0,0,0,0,0,0,0,0,0,0,4.1182,4.119,4.1569,4.1571,4.1573,4.173,4.1732,4.1734,4.164,4.1634,4.1628,4.1623,4.179,4.18,4.1811,0,0,0,0,0,0,0,0,0,0,0,0,0,4.1348,4.1192,4.1569,4.1545,4.1544,4.1729,4.1732,4.1735,4.1641,4.1634,4.1627,4.162,4.1786,4.1799,4.1812,4.2031,0,0,4.1852,4.1858,0,0,0,0,0,0,0,0,4.1338,4.1362,4.1546,4.1547,4.1546,4.1657,4.1657,4.1834,4.1642,4.1604,4.1625,4.1617,4.1753,4.1769,4.1814,4.2039,4.2046,4.1853,4.1861,4.1867,4.1871,0,0,0,0,0,0,0,4.1327,4.1354,4.1633,4.1549,4.1549,4.1527,4.1543,4.169,4.1716,4.1607,4.16,4.1621,4.1752,4.1802,4.1817,4.2048,4.1853,4.1865,4.1873,4.1878,4.246,4.2467,0,0,0,0,0,0,4.1317,4.1346,4.1628,4.1638,4.1423,4.1539,4.1557,4.1629,4.1714,4.172,4.1626,4.1616,4.1783,4.1802,4.1823,4.2084,4.1867,4.1879,4.1887,4.2452,4.2461,4.2469,0,0,0,0,0,0,4.1309,4.1343,4.1621,4.149,4.1524,4.1553,4.1635,4.1635,4.1685,4.1728,4.1733,4.1672,4.1778,4.1805,4.1979,4.2088,4.1885,4.1897,4.2443,4.2455,4.2465,4.2608,0,0,0,0,0,0,4.1298,4.1341,4.1424,4.1492,4.1531,4.1775,4.1641,4.1644,4.1707,4.1695,4.1772,4.1779,4.1775,4.196,4.1993,4.2103,4.1907,4.2433,4.2448,4.2462,4.2593,4.2622,4.2647,0,0,0,0,0,4.1285,4.1458,4.1428,4.1463,4.1635,4.1781,4.1803,4.1794,4.1717,4.18,4.1828,4.1776,4.2071,4.1979,4.2014,4.213,4.2427,4.2444,4.2461,4.2581,4.2617,4.2647,0,0,0,0,0,0,4.1402,4.1467,4.1434,4.1635,4.1703,4.1765,4.187,4.1832,4.1925,4.191,4.1895,4.1914,4.2096,4.2131,4.2027,4.2346,4.2237,4.2262,4.2316,4.2351,4.2377,4.2365,4.1918,0,0,0,0,0,4.1451,4.1564,4.1614,4.1787,4.1822,4.1841,4.1904,4.1891,4.1962,4.1991,4.2031,4.2102,4.2211,4.2283,4.2385,4.2598,4.2613,4.2695,4.2722,4.2744,4.2766,4.288,4.2917,4.2526,4.2525,4.2525,0,0,4.1554,4.1603,4.1676,4.1811,4.1863,4.198,4.1866,4.1995,4.2082,4.201,4.2177,4.221,4.2289,4.2483,4.2571,4.2518,4.2877,4.2766,4.2783,4.2793,4.2901,4.2938,4.2971,4.2537,4.2535,4.2533,0,0,4.1801,4.185,4.1998,4.2052,4.2131,4.2142,4.2178,4.2245,4.2264,4.2431,4.238,4.2483,4.2671,4.2729,4.2783,4.3052,4.3007,4.3086,4.3227,4.3338,4.3369,4.3396,4.3491,4.3526,4.3107,4.3108,4.3108,0,4.1919,4.2093,4.208,4.2213,4.2274,4.2213,4.2364,4.2417,4.2526,4.257,4.2508,4.2742,4.279,4.2997,4.3063,4.3109,4.3149,4.3076,4.3366,4.3393,4.3418,4.3509,4.3545,4.3116,4.3115,4.3114,4.3114,0,4.2234,4.2356,4.2466,4.2571,4.2645,4.2787,4.2794,4.2871,4.2852,4.287,4.3041,4.3097,4.3209,4.3258,4.3241,4.3463,4.3427,4.3367,4.3256,4.3464,4.3549,4.3584,4.3129,4.3126,4.3123,4.3121,0,0,4.256,4.2655,4.2696,4.2742,4.2825,4.2919,4.3058,4.3166,4.3232,4.3309,4.3425,4.3585,4.3529,4.359,4.3579,4.3678,4.3886,4.3604,4.3606,4.3654,4.4133,4.4178,4.4218,4.3857,4.3864,4.3869,4.4126,0,4.2811,4.3051,4.3043,4.3268,4.3379,4.3324,4.3444,4.3509,4.3529,4.3627,4.365,4.3763,4.3681,4.3718,4.3813,4.3841,4.3982,4.3822,4.3965,4.397,4.3946,4.4262,4.431,4.455,4.4159,4.4165,4.4169,0,4.3136,4.3223,4.3459,4.3524,4.357,4.3679,4.3777,4.3872,4.3944,4.3952,4.402,4.3994,4.4135,4.4021,4.4215,4.4107,4.4165,4.4187,4.4196,4.4209,4.4081,4.4282,4.4626,4.4662,4.4221,4.4217,4.4213,0,4.3349,4.3525,4.3688,4.373,4.3811,4.3888,4.3925,4.399,4.4056,4.4143,4.4185,4.4288,4.4344,4.4424,4.4426,4.4344,4.4622,4.4509,4.4632,4.4633,4.4693,4.4689,4.505,4.4732,4.4732,4.4731,4.473,0,4.363,4.3776,4.3784,4.3885,4.4047,4.4036,4.4197,4.4227,4.4285,4.4391,4.435,4.445,4.4447,4.4549,4.4551,4.4711,4.4737,4.4747,4.4746,4.4751,4.4749,4.4788,4.4771,4.474,4.4738,4.4737,4.4735,0,4.3894,4.3906,4.408,4.4142,4.4161,4.4277,4.433,4.4426,4.4442,4.4577,4.4608,4.4634,4.4752,4.4762,4.4899,4.4901,4.5094,4.5075,4.5069,4.5066,4.5188,4.5176,4.5586,4.5639,4.5288,4.5291,4.5294,0,4.4072,4.4183,4.4256,4.4324,4.4365,4.4474,4.4541,4.4535,4.4606,4.4695,4.4781,4.4894,4.4984,4.5176,4.5207,4.5312,4.5295,4.5431,4.531,4.5311,4.5296,4.5289,4.53,4.5455,4.5458,4.5462,4.5464,0,4.4387,4.4387,4.4484,4.4584,4.4664,4.4742,4.4815,4.4873,4.4876,4.4958,4.5077,4.5147,4.5287,4.54,4.5502,4.5541,4.5504,4.5502,4.5536,4.5541,4.5533,4.5538,4.5132,4.5492,4.549,4.5488,4.5486,4.5485,4.4613,4.4709,4.4775,4.4884,4.4938,4.5008,4.51,4.5128,4.5227,4.5339,4.533,4.5462,4.553,4.5663,4.571,4.5814,4.5768,4.5817,4.583,4.5842,4.5854,4.5517,4.5833,4.5832,4.5831,4.583,4.583,0,4.4925,4.4965,4.5065,4.5168,4.5254,4.5211,4.5289,4.5364,4.548,4.5547,4.5637,4.5774,4.5883,4.5924,4.603,4.6106,4.6091,4.6134,4.6128,4.6137,4.5889,4.5849,4.6144,4.6144,4.6144,4.6143,4.6143,4.6143,4.5097,4.5256,4.5264,4.545,4.5488,4.5617,4.5665,4.5729,4.5781,4.5936,4.6026,4.6051,4.6108,4.6218,4.6317,4.6326,4.6367,4.6417,4.6419,4.6187,4.6155,4.6125,4.6086,4.6426,4.6427,4.6658,4.666,4.6662]},{"header":{"parameterUnit":"m.s-1","parameterCategory":1,"la1":30.2991,"la2":30.254,"lo1":-89.0895,"lo2":-89.0444,"dy":0.0017,"dx":0.0017,"nx":28,"ny":28,"refTime":"2024-09-29T09:00:00:Z","depth":0,"parameterNumber":3,"parameterNumberName":"V-component_of_WINDS"},"data":[0,0,0,0,0,0,0,0,0,0,0,0,0,0,0,0,0,0,0,0,0,0,0,0,0,0,0,0,0,0,0,0,0,0,0,0,0,0,0,0,0,0,0,0,0,0,0,0,0,0,0,0,0,0,0,0,0,0,0.722,0.7221,0,0.7271,0.7271,0.7272,0.7232,0.723,0.7229,0.7227,0.7281,0.7284,0.7287,0,0,0,0,0,0,0,0,0,0,0,0,0,0.7089,0.7092,0.722,0.7221,0.7221,0.7271,0.7272,0.7272,0.7232,0.723,0.7228,0.7226,0.728,0.7283,0.7287,0,0,0,0,0,0,0,0,0,0,0,0,0,0.7144,0.7092,0.722,0.7207,0.7207,0.7271,0.7272,0.7272,0.7233,0.723,0.7228,0.7225,0.7279,0.7283,0.7288,0.7367,0,0,0.7302,0.7304,0,0,0,0,0,0,0,0,0.7141,0.7148,0.7209,0.7208,0.7208,0.7242,0.7245,0.7304,0.7234,0.7223,0.7227,0.7224,0.727,0.7275,0.7291,0.737,0.7372,0.7302,0.7305,0.7307,0.7308,0,0,0,0,0,0,0,0.7137,0.7146,0.724,0.7209,0.7209,0.7199,0.7204,0.7256,0.7261,0.7224,0.7221,0.7227,0.727,0.7286,0.7292,0.7373,0.7302,0.7306,0.7309,0.731,0.7519,0.7522,0,0,0,0,0,0,0.7134,0.7143,0.7239,0.7242,0.7167,0.7204,0.7209,0.7234,0.726,0.7261,0.723,0.7225,0.728,0.7286,0.7293,0.7388,0.7307,0.7311,0.7314,0.7516,0.752,0.7523,0,0,0,0,0,0,0.7131,0.7143,0.7236,0.7192,0.7203,0.7209,0.7237,0.7236,0.7253,0.7264,0.7265,0.7246,0.7278,0.7287,0.7349,0.739,0.7313,0.7317,0.7513,0.7517,0.7521,0.7579,0,0,0,0,0,0,0.7128,0.7142,0.7173,0.7193,0.7205,0.7291,0.7239,0.7239,0.7261,0.7256,0.728,0.7281,0.7277,0.7342,0.7353,0.7395,0.7321,0.7509,0.7515,0.752,0.7574,0.7585,0.7594,0,0,0,0,0,0.7123,0.7187,0.7174,0.7186,0.7243,0.7294,0.7301,0.7294,0.7264,0.7295,0.7302,0.728,0.7383,0.7349,0.7361,0.7404,0.7507,0.7513,0.752,0.7569,0.7582,0.7594,0,0,0,0,0,0,0.7173,0.719,0.7176,0.7248,0.727,0.7287,0.7325,0.7309,0.734,0.7334,0.7324,0.733,0.7395,0.7406,0.7368,0.7482,0.744,0.7449,0.7474,0.7487,0.7497,0.7494,0.7324,0,0,0,0,0,0.7192,0.7231,0.7244,0.7306,0.7318,0.732,0.7342,0.7334,0.7356,0.7366,0.7377,0.74,0.7437,0.7462,0.7497,0.7574,0.7579,0.761,0.762,0.7628,0.7637,0.7678,0.7692,0.7544,0.7544,0.7543,0,0,0.7233,0.7246,0.7272,0.7317,0.7333,0.7374,0.7328,0.7374,0.7404,0.7373,0.7432,0.7441,0.7466,0.7536,0.7567,0.7546,0.7678,0.7636,0.7643,0.7647,0.7686,0.77,0.7713,0.7548,0.7547,0.7546,0,0,0.7327,0.7342,0.7395,0.7412,0.7436,0.7437,0.7449,0.7469,0.7474,0.7533,0.751,0.7546,0.761,0.7629,0.7647,0.7747,0.7728,0.7758,0.7813,0.7853,0.7865,0.7875,0.7912,0.7925,0.7766,0.7766,0.7766,0,0.7375,0.7436,0.7425,0.7472,0.7493,0.7465,0.7519,0.7536,0.7571,0.7586,0.7561,0.7641,0.7656,0.7729,0.7754,0.7769,0.7783,0.7756,0.7864,0.7874,0.7884,0.7918,0.7932,0.777,0.7769,0.7769,0.7769,0,0.7493,0.7535,0.7576,0.7609,0.7634,0.7684,0.7682,0.7708,0.7698,0.7701,0.7761,0.7777,0.7815,0.7831,0.7822,0.7904,0.789,0.7865,0.7823,0.7902,0.7934,0.7947,0.7775,0.7774,0.7773,0.7772,0,0,0.7623,0.7648,0.7664,0.7678,0.7702,0.7735,0.7784,0.782,0.7842,0.7867,0.7908,0.7962,0.7939,0.7959,0.7951,0.7987,0.8065,0.7957,0.7958,0.7978,0.8156,0.8176,0.8191,0.8052,0.8055,0.8057,0.8154,0,0.7719,0.7804,0.7796,0.7877,0.7916,0.7889,0.7931,0.7951,0.7954,0.7988,0.7992,0.8031,0.7997,0.8009,0.8042,0.8049,0.8101,0.8041,0.8091,0.8093,0.8087,0.8208,0.8229,0.8321,0.8167,0.8169,0.8171,0,0.7844,0.7872,0.7957,0.7974,0.799,0.8028,0.806,0.8092,0.8114,0.8114,0.8136,0.8122,0.8171,0.8126,0.8193,0.8153,0.8172,0.8178,0.8182,0.8187,0.8138,0.8218,0.835,0.8364,0.819,0.8189,0.8187,0,0.7931,0.799,0.8048,0.8061,0.8082,0.811,0.812,0.8139,0.8161,0.8188,0.8202,0.8236,0.8254,0.828,0.8275,0.8243,0.8344,0.8299,0.8346,0.8347,0.8371,0.8369,0.8508,0.8381,0.8381,0.8381,0.838,0,0.8041,0.8094,0.8087,0.8123,0.8182,0.8171,0.8229,0.8236,0.8252,0.8289,0.8267,0.8303,0.8293,0.8328,0.8324,0.8381,0.8389,0.8391,0.839,0.8394,0.8394,0.8408,0.8402,0.8384,0.8383,0.8383,0.8382,0,0.8149,0.8146,0.8208,0.8223,0.8227,0.827,0.8283,0.8317,0.8317,0.8364,0.8375,0.8377,0.8417,0.8414,0.8459,0.8456,0.8526,0.8517,0.8519,0.8518,0.8565,0.8561,0.872,0.874,0.8598,0.8599,0.8601,0,0.822,0.826,0.8278,0.8301,0.8313,0.835,0.8372,0.8362,0.8386,0.8412,0.8443,0.848,0.851,0.8574,0.858,0.8614,0.8606,0.8659,0.8611,0.8614,0.8608,0.8606,0.861,0.8669,0.8671,0.8672,0.8673,0,0.8346,0.8342,0.8374,0.8406,0.8433,0.8458,0.848,0.85,0.8492,0.852,0.856,0.8583,0.8628,0.8665,0.8697,0.8708,0.869,0.8687,0.87,0.8706,0.8706,0.8707,0.8546,0.8684,0.8683,0.8682,0.8682,0.8681,0.8438,0.8472,0.8491,0.8527,0.8542,0.8564,0.8596,0.8601,0.8634,0.867,0.8661,0.8706,0.8725,0.8766,0.878,0.8815,0.8796,0.8815,0.8819,0.8825,0.883,0.8699,0.8821,0.882,0.882,0.882,0.8819,0,0.8564,0.8574,0.8607,0.8639,0.8668,0.8646,0.867,0.8695,0.8735,0.8754,0.8783,0.8829,0.8865,0.8872,0.8907,0.8933,0.8926,0.8943,0.8942,0.8944,0.8845,0.8831,0.8948,0.8948,0.8948,0.8948,0.8948,0.8948,0.8633,0.869,0.8688,0.8753,0.8762,0.8806,0.8821,0.884,0.8855,0.8907,0.8937,0.8941,0.8956,0.899,0.9022,0.9024,0.9038,0.9059,0.9057,0.8964,0.8951,0.8939,0.8926,0.9061,0.9062,0.9153,0.9154,0.9155]}]]